CAPE
957 1316 1491 1474 1662 1581 1306 1822 1667 1767 1940 1649 1482 1528 1538 1519 1519 1568 1490 1471 1402 1532 1515 1357 1442 1349 1296 1346 1278 1082 919 808 771 602 625 706 987 1057 1146 1138 1118 1075 975 1036 1144 1126 1038 953 996 859 976 1091 1159 1190 1108 973 1015 910 828 1094 881 851 795 589 570 577 634 728 821 790 622 523 371 391 284 82 75 33 18 27 1 3 5 2 2
929 1285 1715 1433 1352 1581 1729 2000 1860 1748 1922 1947 1711 1709 1759 1503 1647 1713 1732 1634 1546 1613 1640 1537 1416 1439 1288 1184 1100 1110 1045 1020 1125 1280 1300 1233 1156 1128 1103 1137 1130 1120 1077 991 1009 1015 818 679 624 785 792 904 951 1084 1075 1044 914 830 860 791 784 818 972 1233 1105 1079 1121 1052 786 521 392 440 525 464 287 143 12 25 16 25 47 8 4 2 3
1216 1320 1724 1591 1654 1846 1779 2021 2016 2018 1972 1990 1785 1657 1727 1519 1674 1732 1723 1685 1661 1681 1710 1565 1529 1437 1291 1159 1225 1316 1293 1208 1203 1294 1293 1195 1166 1118 1144 1138 1074 1087 1171 1048 932 790 702 601 552 556 633 674 711 893 817 933 828 842 789 748 983 1173 1224 1147 1103 918 853 656 453 516 602 476 301 231 142 97 70 44 24 11 2 1 1 2 2
1273 1419 1790 1930 1772 1869 2001 2067 2004 1969 1936 2032 1925 1992 1709 1701 1742 1783 1765 1754 1670 1758 1750 1686 1573 1506 1450 1448 1475 1404 1237 1146 1174 1289 1325 1122 943 1105 1109 1052 1093 1098 879 844 821 705 600 486 376 420 564 595 617 701 762 965 885 776 800 1023 1090 1163 1200 1240 1090 852 747 610 537 392 532 149 234 242 189 158 113 77 50 21 4 16 2 3 4
1275 1531 1818 1956 1854 1880 1748 2010 2123 1856 2005 1951 1831 1726 1840 1654 1766 1760 1815 1846 1837 1842 1834 1755 1644 1463 1494 1520 1431 1408 1346 1318 1259 1188 1118 997 919 683 916 1000 1012 999 902 806 730 610 561 453 408 350 490 544 582 526 597 845 838 781 889 796 782 831 867 851 740 577 455 431 304 33 0 14 122 260 223 112 108 57 50 28 24 5 2 4 3
1345 1534 1795 1988 1991 1907 1841 1922 2139 1965 2163 2134 2009 1943 1813 1956 1804 1814 1836 1847 1904 1834 1870 1814 1717 1594 1480 1496 1502 1529 1512 1400 1277 1207 1340 1134 817 789 774 882 692 922 913 886 774 580 524 421 395 405 414 493 578 594 635 866 808 828 778 694 668 670 669 619 511 410 388 340 126 0 0 2 78 170 224 176 146 56 50 11 10 2 4 4 2
1454 1712 1778 1830 1992 2077 1965 1788 2090 2057 2160 2105 1922 1810 1859 1736 1784 1803 1910 1908 1940 2001 1906 1929 1816 1659 1563 1536 1553 1570 1488 1376 1191 1331 1174 999 967 874 845 844 804 821 775 841 741 521 459 412 363 391 407 552 629 623 728 820 820 762 635 594 561 517 534 489 425 400 220 4 0 0 0 4 70 126 212 203 155 118 71 26 16 3 20 3 0
1523 1582 1593 1742 1844 1883 2022 1988 1999 2128 2248 2203 2070 2038 2035 1774 1667 2010 1880 1965 2039 1925 2010 1997 1992 1876 1746 1718 1696 1687 1575 1312 1463 1237 1038 1071 878 798 882 874 811 779 692 726 684 417 402 410 381 430 579 659 742 700 739 712 726 644 545 486 488 458 400 439 358 249 67 0 0 0 0 2 42 101 196 223 143 113 131 59 13 12 3 2 0
1362 1343 1356 1574 1851 2037 2246 1922 2005 2122 2159 2249 2204 2067 2007 1927 1863 1942 2044 2052 2055 2050 2106 2074 2023 1942 1892 1826 1748 1537 1514 1481 1554 1323 1198 1124 991 992 891 937 788 748 729 745 667 552 382 423 404 462 788 801 674 720 778 865 680 672 887 775 472 308 288 257 220 97 0 0 0 0 0 0 11 104 274 182 113 130 91 54 10 7 1 0 0
1260 1336 1380 1547 1848 2071 2234 2029 1872 2120 2218 2194 2285 2224 2202 1906 1846 1952 1991 2026 2060 2085 2077 2018 1947 1920 1880 1825 1807 1273 1224 1552 1535 1285 1219 1221 1120 1144 1064 1032 1102 1208 1358 1035 677 591 437 384 407 626 765 774 759 797 896 907 926 932 743 515 553 485 248 210 83 26 0 0 0 0 109 129 2 84 141 206 70 32 4 0 0 1 0 0 1
1179 1286 1574 1753 1979 2082 2210 2232 2033 2127 2220 2288 2343 2322 2094 1989 1956 2006 2012 2248 2183 2114 2213 2179 2068 1914 1825 1786 1698 1687 1519 1403 1422 1447 1398 1231 1248 1199 1234 1139 1010 1155 1376 1412 1106 707 640 535 557 606 751 750 715 694 784 882 934 835 692 596 341 359 424 152 38 0 0 0 0 94 456 334 4 93 150 141 93 31 38 19 2 0 0 1 1
1237 1483 1685 1719 1888 1954 2219 2254 2214 2209 2257 2411 2336 2253 2307 2168 2068 2013 2076 1996 2114 2250 2244 2238 2109 1932 1654 1534 1470 1531 1659 1615 1364 1417 1443 1261 1297 1232 1284 1376 1232 1268 1403 1496 1508 1158 953 869 884 868 700 624 712 782 787 786 758 716 662 779 842 798 468 309 15 0 0 5 157 57 23 2 21 160 128 182 85 29 20 24 5 1 0 0 0
1355 1402 1646 1662 1747 2170 2373 2344 2330 2316 2291 2442 2413 2330 2249 2258 2182 2203 2159 2239 2261 2272 2289 2192 2117 1929 1722 1507 1477 1493 1603 1671 1557 1454 1362 1529 1433 1300 1259 1335 1341 1352 1408 1506 1678 1476 1241 1308 1101 825 736 742 713 814 827 725 626 546 695 716 829 811 773 410 0 0 0 16 12 0 0 0 62 227 118 117 81 29 12 14 9 1 0 0 1
1344 1505 1727 1553 1630 1807 2470 2418 2364 2344 2134 2377 2279 2222 2158 2204 2158 2158 2261 2318 2365 2370 2316 2280 2186 2141 1901 1771 1759 1578 1630 1622 1617 1503 1472 1558 1404 1387 1347 1369 1418 1480 1514 1568 1650 1737 1608 1469 1314 1066 979 1027 912 815 916 744 651 656 558 596 877 875 1032 369 34 0 15 2 0 0 0 45 143 194 112 98 84 70 33 2 1 2 3 1 1
1434 1539 1525 1639 1812 1782 1906 2475 2475 2337 2343 2284 2144 1968 1921 1796 1822 2132 2204 2311 2315 2332 2326 2216 2273 2184 2087 1922 1828 1866 1713 1738 1616 1484 1506 1296 888 1340 1410 1463 1480 1564 1630 1566 1525 1566 1607 1479 1369 1271 1232 1250 1106 979 836 705 652 635 500 575 963 926 932 7 0 0 0 3 42 7 0 97 429 183 172 98 64 12 4 3 0 1 1 2 2
1436 1561 1571 1800 1821 2009 2047 2049 2457 2568 2374 2194 2141 2036 1898 1688 1888 1986 2207 2244 2241 2284 2264 2194 2241 2298 2202 2024 2015 2037 1775 1964 1823 1712 1450 1213 1262 1238 1293 1444 1503 1573 1665 1623 1549 1493 1545 1603 1495 1491 1357 1295 1147 993 845 772 642 500 506 631 933 546 332 3 0 0 0 0 0 0 8 275 292 270 138 128 56 2 5 3 1 2 1 3 2
1512 1575 1750 1825 1936 2067 2155 2154 2360 2407 2303 2058 2259 2193 2062 1844 1794 1932 2222 2254 2248 2219 2077 2230 2295 2233 2255 2174 2184 2041 2144 2008 2044 1897 1476 1328 981 1199 1209 1340 1605 1640 1652 1664 1663 1572 1570 1581 1582 1496 1425 1273 1140 956 814 673 531 575 657 682 822 809 171 21 0 0 0 2 2 0 18 156 266 226 206 107 38 2 2 4 3 1 1 1 1
1530 1606 1704 1856 1971 2022 2110 2140 2190 2313 2348 2287 2201 2222 2012 1907 1774 1908 2146 2259 2282 2264 2208 2264 2259 2268 2212 2247 2289 2332 2218 2156 2017 1935 1807 1864 1949 1673 1632 1518 1660 1694 1683 1708 1686 1616 1574 1668 1678 1493 1441 1216 1056 951 817 720 737 724 685 747 564 622 346 53 0 0 0 117 0 24 48 377 313 231 182 118 68 3 2 2 4 2 1 2 1
1475 1458 1543 1770 1831 2006 1996 2085 2202 2294 2284 2316 2377 2203 2054 1909 1768 1850 2100 2073 2172 2229 2323 2278 2196 2200 2061 1994 2060 2444 2229 2171 2008 1980 1838 1869 2042 1906 1720 1658 1644 1736 1766 1766 1734 1664 1644 1714 1713 1579 1470 1284 1121 962 906 829 838 702 681 532 396 593 628 143 0 0 33 5 0 12 22 406 385 298 248 148 36 0 0 1 1 1 0 3 1
1498 1346 1393 1504 1627 1728 1886 1889 1969 2135 2308 2365 2368 2197 2038 2010 2041 2003 2093 2061 2070 2217 2202 2198 2190 2121 1913 1806 2180 1983 2218 2056 1772 1547 1874 1952 1990 1824 1860 1754 1656 1818 1823 1799 1744 1750 1743 1715 1692 1582 1477 1358 1196 960 827 769 717 725 600 332 343 599 634 0 0 0 0 0 5 0 245 365 258 297 286 159 38 1 0 0 0 0 0 1 1
1514 1523 1360 1390 1516 1523 1695 1831 1885 2000 2224 2348 2275 2211 2151 2006 2025 2154 2007 1962 2070 2135 2085 2038 2187 1972 1664 1841 1583 1677 1909 1705 1116 1512 1494 1973 1822 1849 2035 1854 1663 1594 1765 1901 1892 1824 1736 1598 1561 1500 1502 1382 1150 918 845 757 762 774 389 273 227 488 0 0 0 0 0 53 82 2 510 337 342 395 353 148 64 10 0 0 0 0 0 1 0
1540 1664 1427 1314 1470 1449 1591 1776 1877 2007 2120 2203 2221 2157 2257 2190 2260 2146 2102 2065 1956 1934 1871 1838 1793 1784 1819 1544 1475 1486 1720 1501 1529 1456 1344 2003 1715 1864 2110 2052 1741 1434 1528 1811 1927 1827 1755 1585 1567 1487 1476 1353 985 523 292 637 560 572 324 149 0 0 0 0 0 0 0 15 42 47 596 363 434 471 356 193 110 36 0 0 1 1 1 2 1
1459 1636 1504 1375 1387 1461 1503 1723 1969 1949 2027 2037 2103 2247 2233 2245 2324 2289 2213 2228 2040 2020 1838 1858 1773 1736 1715 1543 1541 1528 1592 1524 1614 1641 1742 2000 1888 1983 2161 1950 1641 1313 1254 1799 1962 1840 1759 1646 1572 1486 1354 1199 812 0 0 0 27 261 44 0 0 0 0 0 0 0 0 14 0 186 592 373 472 521 367 249 157 62 8 0 0 1 1 1 1
1654 1700 1436 1435 1431 1489 1572 1663 1780 1841 1840 1938 2069 2104 2113 2192 2305 2371 2358 2230 1868 1935 2022 1886 1850 1778 1654 1554 1514 1558 1662 1712 1869 1698 2121 1904 1939 2082 2100 1522 1160 1073 926 1540 1917 1764 1709 1654 1538 1496 1184 1031 688 0 0 0 20 0 0 0 0 0 0 0 0 0 0 156 0 293 659 437 543 549 465 312 211 101 37 2 0 0 0 1 0
1593 1445 1532 1534 1485 1467 1533 1621 1709 1790 1661 1824 1966 1913 1961 2089 2197 2204 2264 2239 2076 1956 2091 2058 1918 1799 1667 1528 1446 1696 1767 1797 1741 1521 1265 1555 1765 1908 1786 1378 1152 1096 1038 1463 1485 1524 1580 1376 1406 1220 878 799 617 139 0 0 22 0 0 0 0 0 0 0 0 0 0 28 0 344 816 586 595 647 533 362 245 149 61 20 0 0 0 1 1
1443 1510 1600 1720 1719 1669 1588 1551 1554 1719 1690 1705 1748 1902 1893 1942 2039 2024 2118 2088 1896 1948 2116 2104 1933 1871 1766 1696 1681 1761 1789 1740 1732 1506 1261 1550 1623 1703 1648 1373 1054 1232 1188 1386 1367 1325 1259 1088 929 749 488 455 556 416 20 0 2 0 0 0 0 0 0 0 0 0 0 0 16 333 918 744 669 705 630 462 280 205 111 57 0 0 0 0 0
1505 1607 1668 1755 1797 1787 1767 1720 1664 1596 1604 1581 1559 1733 1836 1882 1814 1764 1692 1526 1658 1849 2084 2076 2039 1959 1866 1818 1774 1704 1642 1568 1621 1421 1220 1378 1449 1480 1604 1400 1209 1215 1312 1265 1071 994 915 792 579 440 242 312 414 449 48 0 0 0 0 0 0 0 0 0 0 0 0 0 21 317 852 856 976 744 702 606 448 285 129 73 23 1 0 0 0
1570 1547 1626 1670 1749 1782 1712 1782 1783 1822 1829 1809 1712 1601 1658 1549 1652 1609 1470 1723 1464 1522 1911 1938 2014 1997 1964 1756 1681 1670 1580 1475 1556 1474 1352 1382 1292 1345 1412 1424 1404 1335 1295 1233 902 866 764 641 444 226 152 202 370 278 0 0 0 0 0 0 0 0 0 0 0 0 0 0 1 233 872 836 943 964 738 634 489 358 228 113 63 10 0 0 0
1540 1517 1542 1607 1626 1679 1701 1775 1844 1928 1872 1768 1775 1744 1761 1715 1566 1527 1545 1407 1508 1526 1671 1685 1729 1670 1743 1727 1729 1718 1598 1492 1471 1536 1421 1380 1218 1236 1219 1119 1166 1128 1211 1183 948 672 587 536 283 126 201 0 132 43 8 0 0 0 0 0 0 0 0 0 0 0 0 0 0 67 688 898 896 958 850 673 569 449 282 190 122 34 3 0 0
1457 1392 1438 1551 1688 1735 1712 1742 1800 1858 1674 1627 1641 1785 1865 1781 1716 1541 1240 1315 1387 1452 1373 1418 1369 1225 1226 1533 1787 1758 1614 1462 1466 1550 1536 1372 1120 867 849 937 912 952 1025 1105 964 647 475 502 483 351 0 0 0 3 1 1 0 0 0 0 0 0 0 0 0 0 0 0 0 1 486 952 778 811 937 791 610 549 412 259 138 54 12 0 0
1026 1013 1195 1183 1416 1612 1609 1719 1740 1688 1512 1591 1669 1689 1680 1770 1698 1637 1532 1489 1473 1336 1381 1317 1217 1150 1108 1233 1488 1659 1716 1611 1443 1401 1348 1017 1058 841 804 679 765 725 797 1010 965 697 654 650 575 390 0 0 2 17 11 10 5 0 0 0 0 0 0 0 0 0 0 0 0 0 79 882 814 726 680 757 708 547 494 306 199 124 9 0 1
302 442 766 812 834 658 808 1327 1521 1542 1567 1578 1588 1551 1537 1442 1515 1458 1512 1473 1446 1479 1406 1344 1349 1267 1073 783 1058 1250 1431 1479 1258 894 732 775 846 668 584 684 519 692 836 774 967 778 709 639 564 415 99 42 47 23 17 33 101 210 209 118 28 0 0 0 0 0 0 0 0 0 9 309 916 637 582 613 619 734 538 388 293 125 50 7 0
0 0 0 0 177 619 904 1324 1539 1610 1604 1545 1572 1619 1581 1550 1606 1622 1592 1494 1320 1173 1040 1196 1310 1288 1138 966 1043 1084 1032 957 898 826 683 676 753 703 627 638 678 631 697 773 740 684 556 497 438 397 362 252 154 110 172 245 272 308 298 288 240 184 0 0 0 0 0 0 0 0 2 55 402 758 446 605 495 478 753 517 338 250 90 46 6
0 0 0 0 352 898 1101 1483 1599 1513 1488 1441 1528 1514 1503 1480 1484 1433 1402 1329 1050 1025 981 995 1056 1075 1030 942 910 877 866 888 842 695 616 648 542 538 622 563 639 748 613 746 593 589 514 487 418 383 518 274 254 259 248 296 306 310 317 315 318 283 84 0 0 0 0 0 0 0 0 12 118 377 468 621 619 375 406 695 474 372 172 79 28
0 0 0 0 453 1034 1442 1524 1424 1208 1184 1185 1233 1254 1219 1237 1318 1263 1183 964 839 806 862 1018 1066 814 620 769 710 769 705 502 667 626 499 632 632 601 612 572 637 644 558 563 667 582 484 491 472 473 417 398 358 248 238 247 273 289 393 370 294 285 157 0 0 0 0 0 0 0 0 2 46 96 249 162 551 486 302 437 711 508 303 178 93
0 0 0 0 0 0 396 685 658 591 945 1004 692 235 0 0 0 0 405 894 707 789 960 1114 997 815 582 484 627 638 709 556 591 502 514 510 638 638 593 599 623 695 639 674 620 678 497 443 461 418 418 414 399 389 290 193 176 206 395 462 320 251 164 0 0 0 0 0 0 0 0 0 19 48 128 56 90 281 344 274 457 526 565 278 159
0 0 0 0 0 0 0 0 0 0 741 248 0 0 0 0 0 0 442 514 0 0 559 914 1011 973 685 448 336 491 528 425 443 522 561 439 502 639 673 633 566 576 596 627 647 704 598 548 439 441 383 365 320 303 310 229 157 159 356 457 438 142 78 0 0 0 0 0 0 0 0 0 10 180 139 59 18 40 174 329 295 330 425 420 338
0 0 0 0 0 0 0 0 0 0 0 0 0 0 0 0 0 0 0 0 0 0 20 356 810 545 0 0 0 44 318 522 564 510 470 504 435 534 575 484 422 385 519 577 592 604 666 691 584 243 161 201 221 187 210 189 115 104 308 414 434 380 78 0 0 0 0 0 0 0 0 0 0 20 48 30 8 6 19 123 276 194 251 249 317
0 0 0 0 0 0 0 0 0 0 0 0 0 0 0 0 0 0 0 0 0 450 599 700 571 226 0 0 0 0 0 0 0 0 423 506 436 221 56 282 312 397 334 421 504 610 633 689 679 406 204 225 271 128 189 186 122 91 273 371 344 403 358 0 0 0 0 0 0 0 0 0 0 0 0 3 1 0 0 2 113 207 213 206 208
0 0 0 0 0 0 0 0 0 0 0 0 0 0 0 0 0 0 0 0 0 0 0 0 0 0 0 0 0 0 0 0 0 0 0 0 32 52 219 107 28 0 122 345 502 523 513 554 361 327 241 241 229 262 254 226 324 158 198 287 375 378 438 346 79 0 0 0 0 0 0 0 0 0 0 0 0 0 0 0 1 52 44 92 193
0 0 0 0 0 0 0 0 0 0 0 0 0 0 0 0 0 0 0 0 0 0 0 0 0 0 0 0 0 0 0 0 0 0 0 0 0 0 225 222 141 39 113 68 492 386 480 505 340 303 304 274 419 363 286 302 368 275 256 244 260 324 410 401 347 185 49 0 0 0 0 0 0 0 0 0 0 0 0 0 0 0 3 0 55
0 0 0 0 0 0 0 0 0 0 0 0 0 0 0 0 0 0 0 0 0 0 0 0 0 0 0 0 0 0 0 0 0 0 0 0 63 96 93 120 157 115 14 10 208 262 33 252 282 97 96 282 292 409 421 350 357 280 232 138 75 192 355 337 323 303 279 153 0 0 0 0 0 0 0 0 0 0 0 0 0 0 0 0 0
0 0 0 0 0 0 0 0 0 0 0 0 0 0 0 0 0 0 0 0 0 0 0 0 0 0 0 0 0 0 0 0 0 0 0 0 0 0 0 0 0 1 0 0 0 34 160 114 208 282 248 108 267 222 334 340 320 340 352 297 268 182 189 227 242 248 250 258 169 0 0 0 0 0 0 0 0 0 0 0 0 0 0 0 0
0 0 0 0 0 0 0 0 0 0 0 0 0 0 0 0 0 0 0 0 0 0 0 0 0 0 0 0 0 0 0 0 0 0 0 0 0 0 0 0 0 0 0 0 0 0 146 0 181 159 179 19 181 141 213 322 360 374 383 294 243 180 134 119 101 142 154 149 0 0 0 0 0 0 0 0 0 0 0 0 0 0 0 0 0
0 0 0 0 0 0 0 0 0 0 0 0 0 0 0 0 0 0 0 0 0 0 0 0 0 4 0 0 0 0 0 0 0 0 0 0 0 0 0 0 0 0 0 0 0 0 0 0 0 0 0 90 63 85 128 156 189 188 179 210 189 113 113 126 116 167 0 64 0 28 49 0 0 0 0 0 0 0 0 0 0 0 0 0 0
0 0 0 0 0 0 0 0 0 0 0 0 0 0 0 0 0 0 0 0 0 0 0 0 0 0 0 0 0 0 0 0 0 0 0 0 0 0 0 0 0 0 0 0 0 0 0 0 0 0 0 0 0 0 106 87 100 127 192 132 66 102 152 74 63 119 88 74 88 0 0 0 0 0 0 0 0 0 0 0 0 0 0 0 0
30 0 0 0 0 0 0 0 0 0 0 0 0 0 0 0 0 0 0 0 0 0 0 0 0 0 0 0 0 0 0 0 0 0 0 0 0 0 0 0 0 0 0 0 0 0 0 0 0 0 0 0 0 0 0 0 0 0 0 57 72 81 42 62 120 92 60 45 127 165 144 128 142 34 0 0 0 0 0 0 0 0 0 0 0
32 0 0 0 0 0 0 0 0 0 0 0 0 0 0 0 0 0 0 0 0 0 0 0 0 0 0 0 0 0 0 0 0 0 0 0 0 0 0 0 0 0 0 0 0 0 0 0 0 0 0 0 0 0 0 0 0 0 0 0 1 35 107 118 113 85 61 49 18 85 121 141 121 64 38 72 0 0 0 0 0 0 0 0 0
11 0 0 0 0 0 0 0 0 0 0 0 0 0 0 0 0 0 0 0 0 0 0 0 0 0 0 0 0 0 0 0 0 0 0 0 0 0 0 0 0 0 0 0 0 0 0 0 0 0 0 0 0 0 0 0 0 0 0 0 0 0 0 67 135 155 35 1 5 1 1 22 97 122 27 74 78 0 0 0 0 0 0 0 0
0 0 0 0 0 0 0 0 0 0 0 0 0 0 0 0 0 0 0 0 0 0 0 0 0 0 0 0 0 0 0 0 0 0 0 0 0 0 0 0 0 0 0 0 0 0 0 0 0 0 0 0 0 0 0 0 0 0 0 0 0 0 0 18 11 0 8 55 12 3 6 7 1 0 2 5 24 0 0 0 0 0 0 0 0
0 0 0 0 0 0 0 0 0 0 0 0 0 0 0 0 0 0 0 0 0 0 0 0 0 0 0 0 0 0 0 0 0 0 0 0 0 0 0 0 0 0 0 0 0 0 0 0 0 0 0 0 0 0 0 0 0 0 0 0 0 0 0 0 2 4 3 4 1 1 1 1 2 0 0 0 0 0 0 0 0 0 0 0 0
Wind_Speed
16 22 21 23 24 28 29 33 34 33 32 32 33 33 34 34 35 34 34 33 34 35 37 38 38 37 36 35 35 35 32 30 29 29 26 25 26 24 22 19 19 20 21 22 22 22 22 22 22 23 23 24 25 24 23 22 19 17 16 18 21 20 20 19 18 18 18 18 17 17 16 16 14 13 12 nan nan nan nan nan nan nan nan nan nan
20 21 22 22 26 27 31 33 33 33 33 32 32 33 33 33 33 34 35 35 35 37 38 38 37 37 36 35 34 32 31 28 27 26 25 24 24 23 22 20 19 20 21 22 22 22 22 22 22 22 23 24 24 24 23 22 19 17 18 20 20 20 20 18 19 19 19 18 18 16 16 16 15 14 14 13 nan nan nan nan nan nan nan nan nan
23 23 22 24 26 28 31 33 33 34 34 33 33 33 33 33 33 34 36 36 36 37 38 38 37 37 36 35 33 31 29 27 25 24 23 22 22 22 22 21 19 20 21 22 22 22 22 22 22 22 23 24 24 23 23 23 20 18 19 20 21 21 21 20 19 19 19 19 16 17 17 17 15 14 14 nan nan nan nan nan nan nan nan nan nan
25 22 23 25 29 29 31 32 32 33 34 33 33 33 33 33 33 34 35 36 38 37 37 36 36 35 35 34 32 30 28 27 25 24 22 21 22 22 21 21 20 20 21 22 22 22 22 23 23 23 23 24 24 24 23 23 21 19 20 22 22 22 22 20 19 20 20 19 18 15 11 10 12 14 14 13 11 nan nan nan nan nan nan nan nan
24 24 23 24 25 28 31 32 33 33 34 34 33 33 33 32 33 34 35 36 36 36 36 36 34 33 33 32 32 31 28 26 24 23 21 19 20 21 20 20 19 19 20 22 22 22 22 23 23 23 23 24 24 23 23 23 21 20 20 24 24 23 23 21 21 22 21 19 17 nan nan nan 9 14 14 13 11 nan nan nan nan nan nan nan nan
24 25 26 26 26 28 31 31 33 33 33 33 32 32 33 32 33 34 35 37 37 36 36 36 35 33 32 31 31 30 28 27 25 23 22 21 20 19 19 19 18 18 19 23 23 23 22 23 24 24 24 24 24 23 22 23 21 20 21 23 24 24 23 20 20 22 21 21 17 nan nan nan nan 9 14 13 11 nan nan nan nan nan nan nan nan
29 27 28 29 28 29 31 31 33 33 33 32 33 33 33 34 33 34 34 36 37 36 36 35 35 34 32 31 30 29 28 28 27 25 24 23 22 21 20 19 17 15 20 23 24 23 22 22 24 24 24 24 24 23 23 22 22 21 21 23 24 24 22 21 21 22 22 nan nan nan nan nan nan 7 13 12 10 9 nan nan nan nan nan nan nan
32 30 30 29 29 29 32 32 33 32 32 32 33 34 33 34 34 34 35 36 36 36 35 35 34 34 33 31 30 30 28 28 27 25 24 24 23 21 20 19 17 14 20 22 23 22 22 22 24 24 25 25 24 23 22 22 22 20 21 21 23 24 23 22 23 22 nan nan nan nan nan nan nan 5 12 12 10 9 8 nan nan nan nan nan nan
33 32 32 31 29 33 32 31 32 33 32 33 33 34 34 35 35 35 35 36 36 35 34 34 34 33 32 32 31 31 30 28 26 24 23 23 23 22 21 19 17 13 19 21 21 21 21 21 23 25 25 25 24 23 22 22 22 21 20 22 23 23 23 23 22 nan nan nan nan nan nan nan nan 5 10 11 10 9 nan nan nan nan nan nan nan
35 34 33 31 30 34 33 32 31 33 33 33 34 35 35 35 35 36 36 36 35 34 33 33 33 32 32 32 32 31 30 29 26 23 22 23 23 22 21 19 17 15 18 21 21 21 21 21 22 25 25 25 23 22 21 20 20 19 19 19 22 23 23 23 nan nan nan nan nan nan 14 11 nan nan 9 10 nan nan nan nan nan nan nan nan nan
35 34 32 31 31 35 34 32 32 33 33 33 34 36 36 35 35 35 35 34 35 33 31 31 32 32 32 32 32 31 29 27 25 22 21 22 22 21 21 20 17 14 17 20 22 21 22 23 23 24 25 24 23 23 22 19 17 17 15 15 18 21 23 23 nan nan nan nan nan nan 16 18 nan nan 10 10 nan nan nan nan nan nan nan nan nan
34 32 31 31 35 36 35 33 32 33 33 33 35 36 35 34 34 33 33 34 34 33 31 30 30 31 31 30 29 28 26 24 22 21 21 22 22 22 21 20 19 17 16 19 22 22 22 24 25 24 25 25 24 24 22 20 18 17 15 13 15 18 21 23 nan nan nan nan 20 nan nan nan nan 9 10 10 nan nan nan nan nan nan nan nan nan
32 32 31 31 32 34 33 33 32 33 33 34 34 35 34 33 33 33 31 30 31 30 30 30 29 28 27 26 24 22 22 21 21 21 21 21 22 22 22 22 21 19 17 17 20 23 22 23 24 23 24 25 24 23 22 20 18 17 15 13 13 14 18 23 nan nan nan nan nan nan nan nan nan 11 10 11 nan nan nan nan nan nan nan nan nan
33 32 30 31 30 34 33 33 32 33 33 33 32 31 31 31 31 31 30 29 28 27 27 27 26 25 22 20 19 19 18 20 21 21 22 21 22 23 23 22 22 21 19 16 17 21 23 22 23 22 22 23 24 24 23 21 19 17 14 13 13 12 16 22 nan nan nan nan nan nan nan nan 14 13 12 nan nan nan nan nan nan nan nan nan nan
34 32 30 30 29 30 34 32 32 33 33 32 31 29 29 29 30 30 29 27 26 24 24 24 22 20 19 18 17 17 18 19 19 22 22 21 20 23 23 23 23 23 21 19 17 18 22 23 23 22 21 21 23 25 24 23 20 17 14 13 16 13 17 nan nan nan nan nan nan nan nan nan 16 13 12 nan nan nan nan nan nan nan nan nan nan
32 31 30 30 30 29 30 32 34 34 33 30 30 29 28 28 29 28 26 24 23 21 20 20 20 18 18 17 17 17 18 18 18 20 22 22 21 23 24 24 24 24 22 21 19 17 19 23 24 23 21 20 21 24 24 23 21 17 15 14 15 18 17 nan nan nan nan nan nan nan nan 20 18 13 14 13 nan nan nan nan nan nan nan nan nan
30 30 31 31 31 30 30 31 33 35 31 28 27 29 28 28 28 26 24 21 20 19 19 19 18 18 18 18 18 18 19 19 20 21 23 24 23 25 24 24 24 23 22 21 20 19 17 22 24 24 21 20 20 23 24 23 21 17 15 14 14 15 17 nan nan nan nan nan nan nan nan 20 18 16 15 14 nan nan nan nan nan nan nan nan nan
29 30 32 32 32 32 32 32 32 30 26 26 27 27 27 26 25 23 22 20 19 19 19 19 19 19 20 20 20 20 20 21 22 24 25 23 25 24 25 24 23 21 21 20 20 20 17 19 22 22 20 20 20 22 24 23 20 18 16 14 11 10 15 nan nan nan nan 25 nan nan nan 18 17 16 16 16 nan nan nan nan nan nan nan nan nan
29 31 31 32 33 33 33 33 32 28 25 24 23 24 26 24 23 22 21 20 20 20 21 20 21 21 22 21 21 21 22 23 25 26 26 25 26 26 25 25 22 18 18 19 18 18 16 16 21 20 20 19 19 21 24 24 22 20 18 15 10 8 12 17 nan nan nan nan nan nan nan 18 18 18 17 16 nan nan nan nan nan nan nan nan nan
30 31 30 31 33 34 33 32 30 26 24 23 23 21 23 23 22 21 21 20 21 21 21 20 21 22 22 22 20 22 22 23 25 25 27 27 27 24 24 24 22 18 16 17 17 17 16 14 19 19 19 18 20 23 25 24 23 22 21 17 12 8 13 nan nan nan nan nan nan nan 20 19 18 18 19 17 nan nan nan nan nan nan nan nan nan
29 30 30 31 33 33 33 30 28 26 24 23 22 20 20 22 20 20 20 20 21 21 20 20 19 21 22 22 21 21 23 25 25 22 26 25 25 24 23 23 22 18 16 16 16 17 15 15 19 21 20 19 20 24 26 25 24 24 23 19 15 14 nan nan nan nan nan nan nan nan 20 20 18 18 18 17 nan nan nan nan nan nan nan nan nan
30 31 31 31 32 32 31 28 26 25 24 22 20 18 18 19 18 17 17 17 18 19 17 17 18 19 20 22 22 20 22 22 24 24 21 23 23 23 22 21 21 19 15 16 17 16 16 15 17 22 23 22 22 23 27 27 25 25 24 22 nan nan nan nan nan nan nan nan nan nan 21 20 18 19 19 19 19 nan nan nan nan nan nan nan nan
32 32 31 31 31 31 29 27 26 24 23 21 19 18 18 17 17 16 16 16 16 17 16 17 18 18 20 20 20 19 20 21 22 21 22 21 21 21 20 18 19 19 14 15 16 17 16 17 18 21 24 25 21 nan nan nan nan 26 nan nan nan nan nan nan nan nan nan nan nan 22 22 21 19 20 20 19 19 nan nan nan nan nan nan nan nan
31 31 31 30 30 28 27 26 25 23 21 19 18 18 17 17 16 16 15 16 16 17 17 18 17 18 19 19 19 19 18 20 20 22 21 19 19 19 18 18 19 19 12 14 16 17 16 16 18 21 24 24 21 nan nan nan nan nan nan nan nan nan nan nan nan nan nan 19 nan 20 21 21 19 20 21 21 19 17 nan nan nan nan nan nan nan
29 30 30 29 28 27 25 24 23 21 19 18 18 17 17 17 16 16 16 17 17 18 18 18 17 18 18 18 18 18 18 19 18 20 21 18 19 17 17 18 19 18 15 17 18 18 20 21 22 23 23 24 21 19 nan nan nan nan nan nan nan nan nan nan nan nan nan nan nan 19 20 21 20 20 21 21 21 18 nan nan nan nan nan nan nan
27 28 28 27 26 25 24 23 21 19 18 18 18 17 17 17 17 16 17 17 18 17 18 17 17 18 17 18 17 18 18 19 19 19 21 20 18 18 18 18 18 18 19 19 20 21 23 23 22 22 23 23 21 19 nan nan nan nan nan nan nan nan nan nan nan nan nan nan nan 16 19 20 20 21 21 22 22 20 18 nan nan nan nan nan nan
24 25 25 25 25 24 23 22 21 19 19 20 18 17 17 17 17 17 18 16 17 17 17 17 16 18 17 18 18 18 18 18 19 19 19 19 17 17 18 17 17 18 20 20 20 21 22 22 22 22 24 22 21 21 nan nan nan nan nan nan nan nan nan nan nan nan nan nan nan 14 17 19 19 19 21 21 22 21 20 nan nan nan nan nan nan
23 22 23 24 24 23 21 21 20 19 19 19 18 16 17 17 17 17 18 17 18 17 17 16 16 18 18 18 18 18 18 18 18 18 17 19 18 18 18 18 17 19 21 20 21 22 22 22 22 24 22 22 22 22 nan nan nan nan nan nan nan nan nan nan nan nan nan nan nan 15 16 16 17 17 18 19 20 20 20 19 nan nan nan nan nan
22 20 21 23 21 20 20 21 20 20 19 19 19 18 18 19 18 17 19 16 20 19 18 18 19 19 19 19 19 19 19 19 18 18 19 18 19 20 20 18 17 18 21 21 21 22 22 22 23 24 24 nan 23 nan nan nan nan nan nan nan nan nan nan nan nan nan nan nan nan nan 13 14 15 15 15 17 17 18 19 19 18 nan nan nan nan
19 19 20 19 19 19 20 20 20 19 19 19 19 20 20 20 20 20 19 17 21 21 20 22 22 21 20 18 18 19 19 20 19 19 21 20 20 22 19 12 14 18 21 21 23 23 23 22 22 23 nan nan nan nan nan nan nan nan nan nan nan nan nan nan nan nan nan nan nan nan 13 13 14 15 15 16 16 16 18 18 18 nan nan nan nan
20 20 19 18 18 20 20 20 20 19 19 21 20 22 20 21 21 21 22 23 22 23 24 23 22 22 20 22 20 19 19 19 23 24 22 22 23 20 14 11 19 24 18 20 24 26 25 22 21 22 nan nan nan nan nan nan nan nan nan nan nan nan nan nan nan nan nan nan nan nan nan 13 15 16 16 17 16 15 17 17 18 18 nan nan nan
23 21 19 18 20 19 21 20 21 20 20 21 21 22 22 21 22 23 22 23 24 23 24 20 21 21 22 22 21 20 19 20 27 26 21 23 22 14 17 17 23 21 18 16 19 22 23 23 22 23 nan nan nan nan nan nan 23 24 26 28 nan nan nan nan nan nan nan nan nan nan nan 18 15 16 16 17 17 16 16 16 17 17 nan nan nan
nan nan nan nan 20 19 21 20 21 22 22 22 23 23 23 23 23 23 23 23 23 23 23 20 20 23 23 20 19 21 23 26 31 28 21 20 21 22 21 20 21 18 19 18 15 21 24 27 25 25 25 27 30 30 30 28 27 26 26 28 30 27 nan nan nan nan nan nan nan nan nan nan 18 16 15 16 16 17 16 16 16 16 nan nan nan
nan nan nan nan 20 20 21 22 23 24 24 24 24 24 24 24 24 24 24 25 24 24 23 22 22 24 24 21 21 21 21 27 30 28 19 20 25 26 22 18 20 21 22 19 17 19 23 27 29 30 28 29 30 30 33 33 31 28 27 28 29 29 nan nan nan nan nan nan nan nan nan nan 18 18 18 15 15 16 15 16 15 15 16 nan nan
nan nan nan nan 22 21 22 23 23 25 25 25 26 26 26 26 26 26 26 25 25 24 24 24 25 25 24 22 21 22 21 25 27 25 19 23 25 22 19 18 22 24 22 19 19 22 21 20 24 25 27 30 31 31 33 32 31 32 31 29 29 32 30 nan nan nan nan nan nan nan nan nan nan nan 18 18 16 13 14 14 14 14 14 15 nan
nan nan nan nan nan nan 24 26 26 26 26 26 27 28 nan nan nan nan 28 26 26 26 25 26 27 26 26 25 24 23 25 26 27 26 26 25 25 21 20 24 23 24 21 18 19 22 20 16 17 21 23 26 30 31 33 34 33 33 33 33 31 31 32 nan nan nan nan nan nan nan nan nan nan nan 19 nan nan 16 13 13 13 14 14 13 13
nan nan nan nan nan nan nan nan nan nan 28 29 nan nan nan nan nan nan 29 28 nan nan 27 27 27 28 28 26 24 25 26 26 25 26 28 25 23 21 24 26 26 24 21 17 17 21 19 17 18 20 22 26 28 29 32 34 35 35 35 35 33 30 nan nan nan nan nan nan nan nan nan nan nan 19 20 nan nan nan 15 13 13 13 14 14 12
nan nan nan nan nan nan nan nan nan nan nan nan nan nan nan nan nan nan nan nan nan nan nan 28 28 28 nan nan nan nan 29 28 27 28 28 26 25 25 27 30 28 25 22 18 15 23 20 19 17 20 21 24 24 25 27 31 34 36 37 36 35 32 nan nan nan nan nan nan nan nan nan nan nan nan nan nan nan nan nan 16 14 13 13 13 13
nan nan nan nan nan nan nan nan nan nan nan nan nan nan nan nan nan nan nan nan nan 30 30 31 30 30 nan nan nan nan nan nan nan nan 30 29 28 28 nan 28 28 27 25 20 19 22 23 20 18 19 19 20 26 26 26 29 33 nan 36 36 35 33 30 nan nan nan nan nan nan nan nan nan nan nan nan nan nan nan nan nan 20 19 16 12 13
nan nan nan nan nan nan nan nan nan nan nan nan nan nan nan nan nan nan nan nan nan nan nan nan nan nan nan nan nan nan nan nan nan nan nan nan nan nan 28 29 nan nan 26 25 24 23 20 21 21 18 18 19 23 24 25 29 30 28 33 36 36 35 30 30 nan nan nan nan nan nan nan nan nan nan nan nan nan nan nan nan nan nan nan nan 13
nan nan nan nan nan nan nan nan nan nan nan nan nan nan nan nan nan nan nan nan nan nan nan nan nan nan nan nan nan nan nan nan nan nan nan nan nan nan 29 29 31 nan 30 nan 27 24 25 25 23 21 21 18 18 21 23 28 29 28 30 35 39 38 32 31 32 34 nan nan nan nan nan nan nan nan nan nan nan nan nan nan nan nan nan nan nan
nan nan nan nan nan nan nan nan nan nan nan nan nan nan nan nan nan nan nan nan nan nan nan nan nan nan nan nan nan nan nan nan nan nan nan nan nan nan nan 30 31 32 nan nan 32 29 nan 24 23 nan nan 22 20 21 20 23 25 25 33 36 nan 42 39 35 33 34 35 36 nan nan nan nan nan nan nan nan nan nan nan nan nan nan nan nan nan
nan nan nan nan nan nan nan nan nan nan nan nan nan nan nan nan nan nan nan nan nan nan nan nan nan nan nan nan nan nan nan nan nan nan nan nan nan nan nan nan nan nan nan nan nan nan 29 27 26 25 25 23 21 20 19 18 22 22 28 32 32 41 44 43 40 39 38 38 39 nan nan nan nan nan nan nan nan nan nan nan nan nan nan nan nan
nan nan nan nan nan nan nan nan nan nan nan nan nan nan nan nan nan nan nan nan nan nan nan nan nan nan nan nan nan nan nan nan nan nan nan nan nan nan nan nan nan nan nan nan nan nan 35 nan 31 30 26 nan 24 24 22 22 23 21 23 25 28 33 39 42 42 40 40 38 nan nan nan nan nan nan nan nan nan nan nan nan nan nan nan nan nan
nan nan nan nan nan nan nan nan nan nan nan nan nan nan nan nan nan nan nan nan nan nan nan nan nan nan nan nan nan nan nan nan nan nan nan nan nan nan nan nan nan nan nan nan nan nan nan nan nan nan nan nan nan nan 25 25 26 23 21 23 27 30 30 35 39 37 nan nan nan nan nan nan nan nan nan nan nan nan nan nan nan nan nan nan nan
nan nan nan nan nan nan nan nan nan nan nan nan nan nan nan nan nan nan nan nan nan nan nan nan nan nan nan nan nan nan nan nan nan nan nan nan nan nan nan nan nan nan nan nan nan nan nan nan nan nan nan nan nan nan 28 nan 27 27 23 21 nan 27 30 nan nan 35 nan nan nan nan nan nan nan nan nan nan nan nan nan nan nan nan nan nan nan
nan nan nan nan nan nan nan nan nan nan nan nan nan nan nan nan nan nan nan nan nan nan nan nan nan nan nan nan nan nan nan nan nan nan nan nan nan nan nan nan nan nan nan nan nan nan nan nan nan nan nan nan nan nan nan nan nan nan nan nan nan nan nan nan 34 nan nan nan 37 42 42 41 43 nan nan nan nan nan nan nan nan nan nan nan nan
nan nan nan nan nan nan nan nan nan nan nan nan nan nan nan nan nan nan nan nan nan nan nan nan nan nan nan nan nan nan nan nan nan nan nan nan nan nan nan nan nan nan nan nan nan nan nan nan nan nan nan nan nan nan nan nan nan nan nan nan nan nan 24 26 30 nan nan nan nan nan 40 44 40 nan nan nan nan nan nan nan nan nan nan nan nan
nan nan nan nan nan nan nan nan nan nan nan nan nan nan nan nan nan nan nan nan nan nan nan nan nan nan nan nan nan nan nan nan nan nan nan nan nan nan nan nan nan nan nan nan nan nan nan nan nan nan nan nan nan nan nan nan nan nan nan nan nan nan nan nan 25 29 nan nan nan nan nan nan nan 38 nan nan nan nan nan nan nan nan nan nan nan
nan nan nan nan nan nan nan nan nan nan nan nan nan nan nan nan nan nan nan nan nan nan nan nan nan nan nan nan nan nan nan nan nan nan nan nan nan nan nan nan nan nan nan nan nan nan nan nan nan nan nan nan nan nan nan nan nan nan nan nan nan nan nan nan nan nan nan nan nan nan nan nan nan nan nan nan nan nan nan nan nan nan nan nan nan
nan nan nan nan nan nan nan nan nan nan nan nan nan nan nan nan nan nan nan nan nan nan nan nan nan nan nan nan nan nan nan nan nan nan nan nan nan nan nan nan nan nan nan nan nan nan nan nan nan nan nan nan nan nan nan nan nan nan nan nan nan nan nan nan nan nan nan nan nan nan nan nan nan nan nan nan nan nan nan nan nan nan nan nan nan
Wind_Direction
271 281 285 299 299 301 302 296 296 295 294 294 294 293 292 292 292 291 291 291 292 291 292 294 295 295 296 297 297 298 298 299 299 299 299 294 291 288 285 281 278 279 287 294 295 298 301 298 294 292 289 288 290 291 292 295 293 282 267 252 248 246 246 248 251 251 253 254 254 257 263 268 271 269 269 nan nan nan nan nan nan nan nan nan nan
283 279 285 292 303 302 298 295 295 296 295 294 293 293 292 293 293 292 292 293 293 293 293 294 295 296 296 297 297 297 297 295 294 294 293 294 293 291 289 283 276 277 284 290 294 297 300 298 296 292 289 289 289 290 291 292 291 282 263 255 250 245 240 239 249 252 252 250 251 256 265 269 272 275 276 275 nan nan nan nan nan nan nan nan nan
277 281 285 292 302 297 295 295 295 296 296 295 294 294 294 294 292 292 292 294 294 293 294 295 296 297 297 297 296 295 295 293 292 291 292 295 296 294 291 286 277 275 281 287 293 296 300 300 295 294 291 290 289 289 291 292 291 277 264 258 250 242 241 245 251 255 252 252 255 263 265 267 269 272 272 nan nan nan nan nan nan nan nan nan nan
285 283 284 291 299 294 294 294 294 296 295 294 294 294 294 293 293 292 291 292 293 292 292 293 294 296 297 297 295 294 293 292 291 291 292 295 298 297 296 292 282 276 278 282 289 295 301 301 298 294 290 288 287 288 292 291 290 280 263 249 246 238 232 233 243 250 252 253 251 247 225 240 261 272 273 272 273 nan nan nan nan nan nan nan nan
284 286 283 282 287 290 292 294 295 296 295 295 294 294 293 293 293 293 292 291 290 290 291 292 292 293 294 294 294 293 293 292 291 291 291 295 297 297 292 288 282 275 275 278 285 293 300 301 297 293 289 286 285 287 290 290 290 283 261 250 243 239 237 238 244 249 247 242 235 nan nan nan 247 269 272 272 270 nan nan nan nan nan nan nan nan
285 288 284 280 280 287 292 294 295 296 295 295 294 292 293 292 293 293 293 293 292 291 292 292 293 292 292 293 293 293 293 292 291 282 277 273 275 277 284 283 280 275 275 277 282 290 298 300 297 293 288 284 283 285 288 288 288 282 264 251 244 239 238 241 245 248 245 242 234 nan nan nan nan 256 275 274 274 nan nan nan nan nan nan nan nan
286 286 286 283 281 286 295 296 296 297 295 295 294 292 292 293 292 293 293 293 292 292 292 292 293 294 294 294 294 293 292 294 289 284 281 276 274 280 288 282 272 268 274 275 279 287 293 299 298 293 288 283 281 282 284 285 287 283 269 253 244 240 238 240 244 243 236 nan nan nan nan nan nan 249 272 270 269 270 nan nan nan nan nan nan nan
283 286 289 286 284 292 296 297 298 297 296 293 293 292 291 293 293 292 293 292 291 292 292 293 293 295 296 296 295 293 294 294 292 290 288 285 288 291 285 273 267 262 268 271 275 282 290 297 299 293 286 282 278 278 277 280 284 281 271 256 245 238 234 234 237 236 nan nan nan nan nan nan nan 254 277 273 273 270 270 nan nan nan nan nan nan
286 287 289 289 288 296 295 296 297 297 295 293 290 290 290 292 293 293 293 292 293 292 292 293 295 295 296 296 295 294 294 296 293 292 293 294 294 295 292 284 286 277 269 268 272 278 286 295 299 292 285 280 276 273 269 270 280 281 266 255 244 237 234 234 233 nan nan nan nan nan nan nan nan 236 278 279 276 272 nan nan nan nan nan nan nan
288 288 290 287 288 295 295 296 296 296 294 292 291 291 291 292 294 294 294 293 293 293 294 295 296 297 297 297 295 295 296 296 292 290 294 296 296 299 300 292 284 274 271 267 270 275 282 291 295 293 286 279 271 270 266 263 272 276 270 260 247 237 233 231 nan nan nan nan nan nan 217 217 nan nan 265 269 nan nan nan nan nan nan nan nan nan
288 289 288 285 288 293 293 294 296 295 292 289 290 291 292 292 293 294 295 294 295 295 296 297 298 297 297 297 297 297 296 295 292 289 293 296 294 297 300 297 294 285 273 272 270 272 275 281 286 288 282 278 266 258 254 252 254 264 269 264 255 242 233 232 nan nan nan nan nan nan 224 228 nan nan 250 262 nan nan nan nan nan nan nan nan nan
288 287 286 285 290 291 292 292 293 290 289 287 289 291 291 292 293 294 294 295 296 297 297 296 296 297 299 300 301 301 300 299 293 290 293 296 294 296 299 302 302 295 281 275 273 270 272 275 281 285 283 275 262 255 250 246 246 251 250 242 231 233 244 236 nan nan nan nan 220 nan nan nan nan 222 252 256 nan nan nan nan nan nan nan nan nan
287 289 288 285 285 289 286 289 290 289 288 286 287 291 293 294 294 293 293 292 293 295 296 296 296 297 299 302 303 305 304 301 297 294 296 296 297 298 299 301 302 297 287 276 274 273 268 267 272 279 280 275 265 255 251 247 245 247 246 237 225 225 247 245 nan nan nan nan nan nan nan nan nan 236 238 246 nan nan nan nan nan nan nan nan nan
288 290 287 285 283 287 281 284 284 287 285 284 287 291 294 295 295 293 291 292 291 292 293 295 296 297 299 303 305 306 303 301 299 297 297 298 298 298 297 297 298 296 290 279 270 271 268 263 265 270 274 273 266 256 251 248 246 245 244 233 226 244 256 244 nan nan nan nan nan nan nan nan 216 236 233 nan nan nan nan nan nan nan nan nan nan
288 286 284 283 278 277 283 278 280 281 282 284 288 290 291 291 292 291 293 292 293 293 296 296 296 297 300 302 303 300 302 300 300 299 300 296 297 295 295 296 296 295 292 285 273 265 268 267 263 263 265 264 260 254 250 249 246 242 240 233 230 250 263 nan nan nan nan nan nan nan nan nan 230 233 237 nan nan nan nan nan nan nan nan nan nan
284 282 280 277 275 273 274 281 278 277 281 286 289 288 286 285 291 293 292 293 293 295 295 298 298 295 296 297 297 298 301 298 296 296 297 301 299 295 295 296 297 295 291 288 282 269 263 266 266 262 264 262 254 251 249 249 245 241 239 233 231 244 248 nan nan nan nan nan nan nan nan 225 235 231 234 230 nan nan nan nan nan nan nan nan nan
285 282 277 273 271 269 271 270 274 279 280 284 284 286 285 286 289 291 293 291 294 295 296 295 294 292 290 291 293 296 294 295 294 290 295 295 300 296 296 298 300 297 292 288 287 282 268 269 267 262 262 263 252 245 247 248 247 242 241 235 232 240 248 nan nan nan nan nan nan nan nan 232 235 231 234 233 nan nan nan nan nan nan nan nan nan
285 284 280 275 271 270 269 269 270 274 280 284 285 284 284 286 288 289 291 290 292 292 290 288 289 287 286 287 290 291 291 290 290 289 290 293 289 290 294 297 300 298 294 290 288 285 276 273 270 263 262 263 252 242 242 246 247 244 240 235 229 238 260 nan nan nan nan 239 nan nan nan 236 246 242 239 236 nan nan nan nan nan nan nan nan nan
286 286 283 279 277 270 269 270 273 275 276 275 276 283 288 287 289 289 291 291 290 289 288 288 290 289 292 289 290 290 291 292 292 291 287 285 286 290 291 292 296 298 294 292 289 284 274 269 272 265 263 263 254 240 236 239 240 241 238 231 225 242 275 245 nan nan nan nan nan nan nan 246 247 247 246 244 nan nan nan nan nan nan nan nan nan
282 282 279 277 277 276 271 273 276 277 276 274 276 276 287 291 290 290 291 289 289 288 288 288 287 289 286 284 284 287 285 285 291 286 293 287 288 284 288 290 296 292 290 289 285 277 267 255 261 260 262 262 256 239 232 236 238 240 238 229 224 269 263 nan nan nan nan nan nan nan 240 256 255 254 254 253 nan nan nan nan nan nan nan nan nan
276 279 275 277 279 280 276 276 278 280 277 274 274 274 281 291 288 291 287 288 285 289 289 291 282 280 285 286 280 269 271 271 280 280 291 286 289 289 291 295 296 292 291 291 283 274 263 249 246 255 254 257 258 245 232 232 234 240 239 232 237 244 nan nan nan nan nan nan nan nan 248 258 259 259 258 255 nan nan nan nan nan nan nan nan nan
278 275 272 272 274 278 278 279 279 281 278 273 271 270 273 278 277 279 279 282 285 286 285 276 281 272 279 272 273 274 277 281 280 283 282 287 293 294 292 296 295 291 278 280 277 268 257 247 243 252 251 247 254 237 224 225 230 236 240 237 nan nan nan nan nan nan nan nan nan nan 251 258 259 260 262 258 255 nan nan nan nan nan nan nan nan
279 272 272 273 272 274 278 281 281 279 277 273 270 271 269 270 271 276 278 285 286 283 276 275 271 276 276 281 281 279 282 280 281 286 286 292 289 296 292 293 289 286 275 270 269 260 252 240 239 247 249 243 237 nan nan nan nan 228 nan nan nan nan nan nan nan nan nan nan nan 241 252 257 257 260 264 265 262 nan nan nan nan nan nan nan nan
272 270 272 270 271 274 275 279 282 277 274 270 267 266 264 263 264 265 270 275 273 275 276 277 277 278 281 282 284 285 284 285 295 302 294 288 288 294 296 294 285 284 274 255 259 255 250 241 233 240 242 234 231 nan nan nan nan nan nan nan nan nan nan nan nan nan nan 238 nan 247 250 256 257 260 265 269 270 268 nan nan nan nan nan nan nan
266 266 268 272 271 271 272 274 278 275 272 268 268 262 260 259 258 262 264 266 267 268 274 277 280 280 281 283 284 287 287 285 287 286 291 290 287 288 286 282 276 273 275 249 243 239 239 233 230 231 237 235 232 227 nan nan nan nan nan nan nan nan nan nan nan nan nan nan nan 244 250 255 258 262 266 271 274 275 nan nan nan nan nan nan nan
268 267 270 270 270 269 270 272 274 268 265 260 258 263 264 256 257 260 256 255 265 267 272 276 278 281 281 280 282 283 284 285 283 286 287 288 289 285 282 278 276 275 266 256 245 240 235 228 229 232 233 231 231 229 nan nan nan nan nan nan nan nan nan nan nan nan nan nan nan 243 246 255 257 263 267 271 274 278 279 nan nan nan nan nan nan
264 264 265 269 268 267 267 269 269 264 259 257 258 258 259 256 256 259 259 253 255 263 269 272 275 276 279 280 280 280 282 281 284 283 287 285 286 282 279 276 275 270 263 259 252 243 238 232 227 226 230 229 230 230 nan nan nan nan nan nan nan nan nan nan nan nan nan nan nan 243 245 252 250 262 266 270 273 276 280 nan nan nan nan nan nan
261 261 262 265 267 266 265 265 261 261 259 263 262 258 260 260 261 268 263 269 268 267 266 266 266 272 273 277 281 282 282 283 285 287 290 286 288 281 273 267 263 260 255 254 254 248 242 237 232 224 229 231 229 228 nan nan nan nan nan nan nan nan nan nan nan nan nan nan nan 238 245 253 251 254 267 270 272 273 277 279 nan nan nan nan nan
268 266 265 265 264 266 263 262 258 261 256 259 259 256 259 261 261 252 258 266 264 259 258 258 258 259 267 278 282 282 282 284 286 287 284 286 282 275 260 253 254 257 255 248 248 250 245 241 237 231 227 nan 230 nan nan nan nan nan nan nan nan nan nan nan nan nan nan nan nan nan 246 256 258 258 267 273 273 273 273 273 274 nan nan nan nan
276 270 268 267 265 263 265 264 261 260 258 256 256 257 259 262 266 270 272 268 265 264 260 258 260 260 261 268 276 278 281 284 283 280 280 278 276 263 258 267 270 251 249 248 244 245 245 243 241 237 nan nan nan nan nan nan nan nan nan nan nan nan nan nan nan nan nan nan nan nan 238 252 259 264 262 272 276 274 273 269 268 nan nan nan nan
272 270 268 268 265 264 262 262 262 263 256 257 258 258 259 262 265 266 267 264 266 264 261 258 261 259 260 258 256 260 271 273 272 270 269 263 255 261 280 280 265 252 244 247 246 244 245 245 243 241 nan nan nan nan nan nan nan nan nan nan nan nan nan nan nan nan nan nan nan nan nan 241 256 262 265 265 268 271 274 268 267 265 nan nan nan
275 273 269 266 264 264 264 261 261 259 258 256 258 261 263 264 265 266 269 271 267 263 255 254 259 261 257 253 254 253 253 258 262 255 251 259 264 272 265 254 252 259 262 254 255 252 249 244 242 241 nan nan nan nan nan nan 222 224 223 219 nan nan nan nan nan nan nan nan nan nan nan 234 246 259 262 262 265 262 270 268 266 263 nan nan nan
nan nan nan nan 265 262 262 259 259 257 260 262 261 261 263 265 266 267 267 270 270 271 273 272 262 259 258 254 250 249 248 249 256 264 271 280 281 271 265 259 273 291 285 280 273 264 255 249 243 238 238 235 233 230 231 232 224 221 227 222 219 219 nan nan nan nan nan nan nan nan nan nan 241 251 260 259 262 260 258 265 262 257 nan nan nan
nan nan nan nan 257 253 251 253 255 259 260 261 264 265 267 267 267 267 271 271 270 270 272 271 270 265 260 258 253 250 251 253 257 262 267 269 265 265 276 279 281 276 273 277 265 251 249 247 241 237 236 237 235 231 230 228 227 223 222 225 224 219 nan nan nan nan nan nan nan nan nan nan 247 246 248 253 260 261 257 258 264 258 257 nan nan
nan nan nan nan 261 259 255 255 254 258 260 262 265 266 265 266 267 267 267 271 270 272 272 271 272 273 270 264 263 260 256 259 269 272 268 260 265 271 276 276 272 271 270 272 273 265 256 255 248 245 239 237 234 230 228 228 227 223 222 222 220 224 224 nan nan nan nan nan nan nan nan nan nan nan 243 245 246 261 263 260 263 263 260 262 nan
nan nan nan nan nan nan 263 261 258 260 260 261 262 262 nan nan nan nan 268 266 268 268 266 269 269 268 267 263 258 258 261 261 267 273 272 270 271 273 273 267 264 261 264 272 275 278 278 273 264 259 251 238 235 232 233 228 226 224 225 224 222 221 225 nan nan nan nan nan nan nan nan nan nan nan 242 nan nan 244 261 263 259 257 261 264 264
nan nan nan nan nan nan nan nan nan nan 264 260 nan nan nan nan nan nan 267 266 nan nan 266 269 267 264 266 265 262 261 260 266 270 272 271 273 273 270 266 267 264 261 254 256 273 272 277 275 265 266 260 243 237 233 230 229 226 225 225 225 223 224 nan nan nan nan nan nan nan nan nan nan nan 244 242 nan nan nan 249 263 265 260 261 265 264
nan nan nan nan nan nan nan nan nan nan nan nan nan nan nan nan nan nan nan nan nan nan nan 268 268 269 nan nan nan nan 263 265 267 268 268 268 267 263 260 262 266 268 258 250 265 269 269 267 264 266 261 247 235 236 233 231 229 226 225 224 222 225 nan nan nan nan nan nan nan nan nan nan nan nan nan nan nan nan nan 254 267 268 266 267 267
nan nan nan nan nan nan nan nan nan nan nan nan nan nan nan nan nan nan nan nan nan 263 266 267 268 267 nan nan nan nan nan nan nan nan 265 266 263 261 nan 258 264 266 268 273 276 271 270 270 268 262 258 247 239 238 239 237 232 nan 223 222 221 222 223 nan nan nan nan nan nan nan nan nan nan nan nan nan nan nan nan nan 252 254 256 271 271
nan nan nan nan nan nan nan nan nan nan nan nan nan nan nan nan nan nan nan nan nan nan nan nan nan nan nan nan nan nan nan nan nan nan nan nan nan nan 260 257 nan nan 260 258 254 255 269 268 262 258 252 240 237 242 247 243 239 235 225 221 220 222 223 225 nan nan nan nan nan nan nan nan nan nan nan nan nan nan nan nan nan nan nan nan 270
nan nan nan nan nan nan nan nan nan nan nan nan nan nan nan nan nan nan nan nan nan nan nan nan nan nan nan nan nan nan nan nan nan nan nan nan nan nan 260 258 254 nan 250 nan 259 255 260 262 264 264 265 262 245 240 244 236 228 229 228 224 221 224 226 227 228 228 nan nan nan nan nan nan nan nan nan nan nan nan nan nan nan nan nan nan nan
nan nan nan nan nan nan nan nan nan nan nan nan nan nan nan nan nan nan nan nan nan nan nan nan nan nan nan nan nan nan nan nan nan nan nan nan nan nan nan 253 252 250 nan nan 247 253 nan 260 262 nan nan 259 251 241 242 240 228 222 224 225 nan 220 226 228 226 227 229 230 nan nan nan nan nan nan nan nan nan nan nan nan nan nan nan nan nan
nan nan nan nan nan nan nan nan nan nan nan nan nan nan nan nan nan nan nan nan nan nan nan nan nan nan nan nan nan nan nan nan nan nan nan nan nan nan nan nan nan nan nan nan nan nan 247 250 253 256 256 256 254 247 243 244 246 232 230 228 224 224 221 222 225 223 225 228 231 nan nan nan nan nan nan nan nan nan nan nan nan nan nan nan nan
nan nan nan nan nan nan nan nan nan nan nan nan nan nan nan nan nan nan nan nan nan nan nan nan nan nan nan nan nan nan nan nan nan nan nan nan nan nan nan nan nan nan nan nan nan nan 244 nan 247 249 253 nan 252 246 243 247 245 246 235 236 231 231 223 225 222 220 225 229 nan nan nan nan nan nan nan nan nan nan nan nan nan nan nan nan nan
nan nan nan nan nan nan nan nan nan nan nan nan nan nan nan nan nan nan nan nan nan nan nan nan nan nan nan nan nan nan nan nan nan nan nan nan nan nan nan nan nan nan nan nan nan nan nan nan nan nan nan nan nan nan 243 245 247 242 244 242 236 233 232 229 225 224 nan nan nan nan nan nan nan nan nan nan nan nan nan nan nan nan nan nan nan
nan nan nan nan nan nan nan nan nan nan nan nan nan nan nan nan nan nan nan nan nan nan nan nan nan nan nan nan nan nan nan nan nan nan nan nan nan nan nan nan nan nan nan nan nan nan nan nan nan nan nan nan nan nan 245 nan 245 247 243 238 nan 236 235 nan nan 228 nan nan nan nan nan nan nan nan nan nan nan nan nan nan nan nan nan nan nan
nan nan nan nan nan nan nan nan nan nan nan nan nan nan nan nan nan nan nan nan nan nan nan nan nan nan nan nan nan nan nan nan nan nan nan nan nan nan nan nan nan nan nan nan nan nan nan nan nan nan nan nan nan nan nan nan nan nan nan nan nan nan nan nan 235 nan nan nan 231 231 233 235 237 nan nan nan nan nan nan nan nan nan nan nan nan
nan nan nan nan nan nan nan nan nan nan nan nan nan nan nan nan nan nan nan nan nan nan nan nan nan nan nan nan nan nan nan nan nan nan nan nan nan nan nan nan nan nan nan nan nan nan nan nan nan nan nan nan nan nan nan nan nan nan nan nan nan nan 242 239 236 nan nan nan nan nan 241 236 234 nan nan nan nan nan nan nan nan nan nan nan nan
nan nan nan nan nan nan nan nan nan nan nan nan nan nan nan nan nan nan nan nan nan nan nan nan nan nan nan nan nan nan nan nan nan nan nan nan nan nan nan nan nan nan nan nan nan nan nan nan nan nan nan nan nan nan nan nan nan nan nan nan nan nan nan nan 243 242 nan nan nan nan nan nan nan 242 nan nan nan nan nan nan nan nan nan nan nan
nan nan nan nan nan nan nan nan nan nan nan nan nan nan nan nan nan nan nan nan nan nan nan nan nan nan nan nan nan nan nan nan nan nan nan nan nan nan nan nan nan nan nan nan nan nan nan nan nan nan nan nan nan nan nan nan nan nan nan nan nan nan nan nan nan nan nan nan nan nan nan nan nan nan nan nan nan nan nan nan nan nan nan nan nan
nan nan nan nan nan nan nan nan nan nan nan nan nan nan nan nan nan nan nan nan nan nan nan nan nan nan nan nan nan nan nan nan nan nan nan nan nan nan nan nan nan nan nan nan nan nan nan nan nan nan nan nan nan nan nan nan nan nan nan nan nan nan nan nan nan nan nan nan nan nan nan nan nan nan nan nan nan nan nan nan nan nan nan nan nan